Weather in Sơn La

Vietnam     21°19′43″N   103°55′44″E
temp.,
°C
wind,
m/s
gust,
m/s
humid.,
%
clouds,
%
prec.,
mm/h
press.,
hPa
HPBL,
m
12 august, fri
fri1201:00+19sse2499100 1.2 1007129
04:00+19sse1299100 0.0 100653
07:00+20sse129996 0.1 100897
10:00+21e1199100 1.6 100899
13:00+21ne1199100 9.7 1007156
16:00+21nne1198100 2.8 1006187
19:00+20ssw1198100 4.0 100712
22:00+20s1198100 0.0 100914
13 august, sat
sat1301:00+20wsw1198100 0.1 100815
04:00+20w119899 0.1 100816
07:00+20sw009899 0.1 100955
10:00+23sse019058 0.1 1010378
13:00+27nne027233 0.1 1007893
16:00+26wnw018310 2.4 1005336
19:00+22sw119517 4.8 100712
22:00+21wsw119659 1.4 100917
14 august, sun
sun1401:00+20wsw119753 1.4 100819
04:00+19w119784 0.0 100818
07:00+21w1196100 0.0 100976
10:00+25nnw2377100 0.0 1009854
13:00+29n246496 0.0 10071260
16:00+28nne02797 1.4 1005398
19:00+23w118850 2.0 100513
22:00+23wsw118635 0.2 100817
15 august, mon
mon1501:00+21wsw119182 0.2 100711
04:00+21sw119080 0.0 100611
07:00+22ssw018984 0.0 100754
10:00+28nnw017015 0.0 1007741
13:00+30ne226131 0.1 10041381
16:00+30se127095 1.5 1002736
19:00+23ssw1190100 3.5 100513
22:00+22s119477 1.8 100718
16 august, tue
tue1601:00+21sw119564 2.0 100611
04:00+21sw11965 0.0 100611
07:00+22s00945 0.0 100773
10:00+27e117535 0.1 1007824
13:00+30e22659 0.8 10041198
16:00+29se247968 1.9 1002627
19:00+23sse23947 7.1 100549
22:00+22sse259813 0.8 1007115